Time,TemperatureF,DewpointF,PressureIn,WindDirection,WindDirectionDegrees,WindSpeedMPH,WindSpeedGustMPH,Humidity,HourlyPrecipIn,Conditions,Clouds,dailyrainin,SoftwareType,DateUTC
2013-08-01 00:23:00,85.0,81.0,-100.00,SSW,210,13.0,-999.0,90,0.00,,,-99.99,,2013-08-01 05:23:00,
2013-08-01 00:33:00,85.0,81.0,-100.00,SSW,210,13.0,-999.0,90,0.00,,,-99.99,,2013-08-01 05:33:00,
2013-08-01 00:43:00,85.0,81.0,-100.00,SSW,210,13.0,-999.0,90,0.00,,,-99.99,,2013-08-01 05:43:00,
2013-08-01 01:23:00,84.0,81.0,-100.00,SW,216,12.0,-999.0,91,0.00,,,-99.99,,2013-08-01 06:23:00,
2013-08-01 01:33:00,84.0,81.0,-100.00,SW,216,12.0,-999.0,91,0.00,,,-99.99,,2013-08-01 06:33:00,
2013-08-01 01:42:00,84.0,81.0,-100.00,SW,216,12.0,-999.0,91,0.00,,,-99.99,,2013-08-01 06:42:00,
2013-08-01 02:23:00,84.0,80.0,-100.00,WSW,238,8.0,-999.0,90,0.00,,,-99.99,,2013-08-01 07:23:00,
2013-08-01 02:32:00,84.0,80.0,-100.00,WSW,238,8.0,-999.0,90,0.00,,,-99.99,,2013-08-01 07:32:00,
2013-08-01 02:43:00,84.0,80.0,-100.00,WSW,238,8.0,-999.0,90,0.00,,,-99.99,,2013-08-01 07:43:00,
2013-08-01 02:45:00,84.0,81.0,-100.00,SW,234,9.0,-999.0,91,0.00,,,-99.99,,2013-08-01 07:45:00,
2013-08-01 03:26:00,84.0,81.0,-100.00,SW,234,9.0,-999.0,91,0.00,,,-99.99,,2013-08-01 08:26:00,
2013-08-01 03:38:00,84.0,81.0,-100.00,SW,234,9.0,-999.0,91,0.00,,,-99.99,,2013-08-01 08:38:00,
2013-08-01 04:33:00,83.0,81.0,-100.00,West,260,8.0,-999.0,92,0.00,,,-99.99,,2013-08-01 09:33:00,
2013-08-01 04:43:00,83.0,81.0,-100.00,West,260,8.0,-999.0,92,0.00,,,-99.99,,2013-08-01 09:43:00,
2013-08-01 04:45:00,83.0,82.0,-100.00,West,259,8.0,-999.0,94,0.00,,,-99.99,,2013-08-01 09:45:00,
2013-08-01 05:30:00,83.0,82.0,-100.00,West,259,8.0,-999.0,94,0.00,,,-99.99,,2013-08-01 10:30:00,
2013-08-01 05:42:00,83.0,82.0,-100.00,West,259,8.0,-999.0,94,0.00,,,-99.99,,2013-08-01 10:42:00,
2013-08-01 05:45:00,79.0,74.0,-100.00,WSW,256,8.0,-999.0,85,0.17,,,-99.99,,2013-08-01 10:45:00,
2013-08-01 07:35:00,81.0,-99.9,-100.00,NW,308,7.0,-999.0,121,0.00,,,-99.99,,2013-08-01 12:35:00,
2013-08-01 07:45:00,82.0,-99.9,-100.00,WNW,302,8.0,-999.0,116,0.00,,,-99.99,,2013-08-01 12:45:00,
2013-08-01 08:38:00,82.0,-99.9,-100.00,WNW,302,8.0,-999.0,116,0.00,,,-99.99,,2013-08-01 13:38:00,
2013-08-01 10:30:00,84.0,76.0,-100.00,NW,309,10.0,-999.0,76,0.00,,,-99.99,,2013-08-01 15:30:00,
2013-08-01 10:38:00,84.0,76.0,-100.00,NW,309,10.0,-999.0,76,0.00,,,-99.99,,2013-08-01 15:38:00,
2013-08-01 10:45:00,87.0,78.0,-100.00,WNW,296,8.0,-999.0,75,0.00,,,-99.99,,2013-08-01 15:45:00,
2013-08-01 12:43:00,88.0,78.0,-100.00,NW,305,11.0,-999.0,73,0.00,,,-99.99,,2013-08-01 17:43:00,
2013-08-01 12:45:00,89.0,77.0,-100.00,WNW,292,8.0,-999.0,68,0.00,,,-99.99,,2013-08-01 17:45:00,
2013-08-01 14:32:00,88.0,79.0,-100.00,WSW,244,11.0,-999.0,74,0.00,,,-99.99,,2013-08-01 19:32:00,
2013-08-01 15:38:00,86.0,77.0,-100.00,WSW,238,12.0,-999.0,74,0.01,,,-99.99,,2013-08-01 20:38:00,
2013-08-01 16:34:00,81.0,77.0,-100.00,SW,223,3.0,-999.0,89,0.29,,,-99.99,,2013-08-01 21:34:00,
2013-08-01 16:43:00,81.0,77.0,-100.00,SW,223,3.0,-999.0,89,0.29,,,-99.99,,2013-08-01 21:43:00,
2013-08-01 16:45:00,77.0,-99.9,-100.00,West,271,12.0,-999.0,109,0.07,,,-99.99,,2013-08-01 21:45:00,
2013-08-01 17:23:00,77.0,-99.9,-100.00,West,271,12.0,-999.0,109,0.07,,,-99.99,,2013-08-01 22:23:00,
2013-08-01 17:36:00,77.0,-99.9,-100.00,West,271,12.0,-999.0,109,0.07,,,-99.99,,2013-08-01 22:36:00,
2013-08-01 17:45:00,80.0,77.0,-100.00,NNW,341,4.0,-999.0,92,0.01,,,-99.99,,2013-08-01 22:45:00,
2013-08-01 18:25:00,80.0,77.0,-100.00,NNW,341,4.0,-999.0,92,0.01,,,-99.99,,2013-08-01 23:25:00,
2013-08-01 18:33:00,80.0,77.0,-100.00,NNW,341,4.0,-999.0,92,0.01,,,-99.99,,2013-08-01 23:33:00,
2013-08-01 18:45:00,79.0,-99.9,-100.00,North,11,3.0,-999.0,105,0.00,,,-99.99,,2013-08-01 23:45:00,
2013-08-01 19:32:00,79.0,-99.9,-100.00,North,11,3.0,-999.0,105,0.00,,,-99.99,,2013-08-02 00:32:00,
2013-08-01 20:32:00,79.0,-99.9,-100.00,North,354,2.0,-999.0,103,0.00,,,-99.99,,2013-08-02 01:32:00,
2013-08-01 20:43:00,79.0,-99.9,-100.00,North,354,2.0,-999.0,103,0.00,,,-99.99,,2013-08-02 01:43:00,
2013-08-01 20:45:00,76.0,-99.9,-100.00,North,353,5.0,-999.0,116,0.00,,,-99.99,,2013-08-02 01:45:00,
2013-08-01 21:28:00,76.0,-99.9,-100.00,North,353,5.0,-999.0,116,0.00,,,-99.99,,2013-08-02 02:28:00,
2013-08-01 21:38:00,76.0,-99.9,-100.00,North,353,5.0,-999.0,116,0.00,,,-99.99,,2013-08-02 02:38:00,
2013-08-01 21:45:00,76.0,-99.9,-100.00,NW,306,4.0,-999.0,121,0.00,,,-99.99,,2013-08-02 02:45:00,
2013-08-01 22:24:00,76.0,-99.9,-100.00,NW,306,4.0,-999.0,121,0.00,,,-99.99,,2013-08-02 03:24:00,
2013-08-01 23:22:00,76.0,-99.9,-100.00,NE,42,3.0,-999.0,123,0.00,,,-99.99,,2013-08-02 04:22:00,
2013-08-01 23:33:00,76.0,-99.9,-100.00,NE,42,3.0,-999.0,123,0.00,,,-99.99,,2013-08-02 04:33:00,
2013-08-01 23:43:00,76.0,-99.9,-100.00,NE,42,3.0,-999.0,123,0.00,,,-99.99,,2013-08-02 04:43:00,